| time (UTC) | temp F | wind direction | speed knots | gust knots | rain 1hr in | rain 24hr in | rain mn in | humidity % | barometer mb |
| 20260509044808 | 57 | 129 | 0.0 | 0.0 | 0.00 | 0.01 | 0.00 | 63 | 1009.5 |
| 20260509044258 | 57 | 129 | 0.0 | 0.0 | 0.00 | 0.01 | 0.00 | 63 | 1009.5 |
| 20260509043752 | 58 | 129 | 0.0 | 0.0 | 0.00 | 0.01 | 0.00 | 63 | 1009.5 |
| 20260509043735 | 58 | 129 | 0.0 | 0.0 | 0.00 | 0.01 | 0.00 | 63 | 1009.4 |
| 20260509042740 | 58 | 129 | 0.0 | 0.0 | 0.00 | 0.01 | 0.00 | 61 | 1009.6 |
| 20260509042234 | 59 | 129 | 0.0 | 0.0 | 0.00 | 0.01 | 0.00 | 60 | 1009.5 |
| 20260509041728 | 59 | 129 | 0.0 | 0.0 | 0.00 | 0.01 | 0.00 | 59 | 1009.5 |
| 20260509041224 | 59 | 129 | 0.0 | 0.0 | 0.00 | 0.01 | 0.00 | 59 | 1009.6 |
| 20260509040724 | 60 | 129 | 0.0 | 0.0 | 0.00 | 0.01 | 0.00 | 58 | 1009.7 |
| 20260509040224 | 60 | 129 | 0.0 | 0.9 | 0.00 | 0.01 | 0.00 | 58 | 1009.6 |
| 20260509035942 | 59 | 129 | 0.0 | 0.9 | 0.00 | 0.01 | 0.01 | 57 | 1009.6 |
| 20260509035222 | 60 | 129 | 0.0 | 0.0 | 0.00 | 0.01 | 0.01 | 58 | 1009.7 |
| 20260509034723 | 60 | 129 | 0.0 | 0.9 | 0.00 | 0.01 | 0.01 | 57 | 1009.8 |
| 20260509034221 | 60 | 129 | 0.0 | 0.9 | 0.00 | 0.01 | 0.01 | 56 | 1009.8 |
| 20260509033722 | 60 | 129 | 0.0 | 0.9 | 0.00 | 0.01 | 0.01 | 56 | 1009.8 |
| 20260509033220 | 60 | 129 | 0.0 | 0.9 | 0.00 | 0.01 | 0.01 | 56 | 1010.0 |
| 20260509032718 | 60 | 129 | 0.0 | 0.9 | 0.00 | 0.01 | 0.01 | 56 | 1010.0 |
| 20260509032219 | 60 | 129 | 0.0 | 0.9 | 0.00 | 0.01 | 0.01 | 55 | 1010.0 |
| 20260509031719 | 60 | 52 | 0.0 | 0.9 | 0.00 | 0.01 | 0.01 | 55 | 1009.9 |
| 20260509031215 | 60 | 150 | 0.0 | 0.0 | 0.00 | 0.01 | 0.01 | 55 | 1010.0 |
| 20260509030715 | 60 | 150 | 0.0 | 0.9 | 0.00 | 0.01 | 0.01 | 55 | 1009.9 |
| 20260509030216 | 60 | 150 | 0.0 | 0.9 | 0.00 | 0.01 | 0.01 | 54 | 1009.8 |
| 20260509025714 | 60 | 150 | 0.0 | 0.9 | 0.00 | 0.01 | 0.01 | 54 | 1009.8 |
| 20260509025212 | 60 | 217 | 0.0 | 0.9 | 0.00 | 0.01 | 0.01 | 53 | 1010.0 |
| 20260509024934 | 60 | 219 | 0.0 | 0.0 | 0.00 | 0.01 | 0.01 | 53 | 1009.9 |
| 20260509024208 | 60 | 219 | 0.0 | 0.9 | 0.00 | 0.01 | 0.01 | 53 | 1009.9 |
| 20260509023928 | 60 | 219 | 0.0 | 0.9 | 0.00 | 0.01 | 0.01 | 52 | 1010.0 |
| 20260509023204 | 60 | 219 | 0.0 | 0.9 | 0.00 | 0.01 | 0.01 | 52 | 1009.9 |
| 20260509022659 | 60 | 219 | 0.0 | 0.9 | 0.00 | 0.01 | 0.01 | 51 | 1009.9 |
| 20260509022158 | 61 | 219 | 0.0 | 0.9 | 0.00 | 0.01 | 0.01 | 50 | 1009.9 |
| 20260509022152 | 60 | 219 | 0.0 | 0.9 | 0.00 | 0.01 | 0.01 | 50 | 1009.9 |
| 20260509021359 | 61 | 141 | 0.0 | 0.9 | 0.00 | 0.01 | 0.01 | 50 | 1010.0 |
| 20260509020634 | 61 | 141 | 0.0 | 0.0 | 0.00 | 0.01 | 0.01 | 50 | 1010.0 |
| 20260509020128 | 61 | 57 | 0.0 | 0.0 | 0.00 | 0.01 | 0.01 | 49 | 1009.9 |
| 20260509015621 | 61 | 56 | 0.0 | 0.0 | 0.00 | 0.01 | 0.01 | 49 | 1009.7 |
| 20260509015113 | 61 | 56 | 0.0 | 0.0 | 0.00 | 0.01 | 0.01 | 48 | 1009.7 |
| 20260509014612 | 61 | 57 | 0.0 | 0.0 | 0.00 | 0.01 | 0.01 | 48 | 1009.8 |
| 20260509014058 | 62 | 56 | 0.0 | 0.0 | 0.00 | 0.01 | 0.01 | 47 | 1009.8 |
| 20260509013552 | 62 | 56 | 0.0 | 0.9 | 0.00 | 0.01 | 0.01 | 47 | 1009.7 |
| 20260509013320 | 62 | 56 | 0.0 | 0.9 | 0.00 | 0.01 | 0.01 | 47 | 1009.6 |
| 20260509012541 | 62 | 44 | 0.0 | 0.0 | 0.00 | 0.01 | 0.01 | 47 | 1009.6 |
| 20260509012034 | 62 | 44 | 0.0 | 0.0 | 0.00 | 0.01 | 0.01 | 47 | 1009.5 |
| 20260509011528 | 62 | 44 | 0.0 | 0.0 | 0.00 | 0.01 | 0.01 | 47 | 1009.4 |
| 20260509011220 | 63 | 44 | 0.0 | 0.0 | 0.00 | 0.01 | 0.01 | 46 | 1009.4 |
| 20260509011108 | 62 | 44 | 0.0 | 0.0 | 0.00 | 0.01 | 0.01 | 47 | 1009.5 |
| 20260509010010 | 63 | 44 | 0.0 | 0.0 | 0.00 | 0.01 | 0.01 | 46 | 1009.4 |
| 20260509005728 | 63 | 44 | 0.0 | 0.9 | 0.00 | 0.01 | 0.01 | 46 | 1009.5 |
| 20260509004957 | 64 | 44 | 0.0 | 0.9 | 0.00 | 0.01 | 0.01 | 45 | 1009.4 |
| 20260509004451 | 64 | 46 | 0.0 | 0.9 | 0.00 | 0.01 | 0.01 | 45 | 1009.4 |
| 20260509003946 | 64 | 46 | 0.0 | 0.9 | 0.00 | 0.01 | 0.01 | 44 | 1009.5 |
| 20260509003440 | 65 | 46 | 0.0 | 0.0 | 0.00 | 0.01 | 0.01 | 44 | 1009.4 |
| 20260509002934 | 65 | 41 | 0.0 | 0.9 | 0.00 | 0.01 | 0.01 | 44 | 1009.3 |
| 20260509002428 | 65 | 41 | 0.0 | 0.9 | 0.00 | 0.01 | 0.01 | 43 | 1009.3 |
| 20260509001922 | 65 | 41 | 0.0 | 0.9 | 0.00 | 0.01 | 0.01 | 43 | 1009.3 |
| 20260509001415 | 66 | 31 | 0.0 | 0.9 | 0.00 | 0.01 | 0.01 | 43 | 1009.3 |
| 20260509000910 | 66 | 30 | 0.0 | 0.9 | 0.00 | 0.01 | 0.01 | 42 | 1009.3 |
| 20260509000403 | 66 | 231 | 0.0 | 0.9 | 0.00 | 0.01 | 0.01 | 42 | 1009.3 |
| 20260508235858 | 67 | 233 | 0.0 | 0.9 | 0.00 | 0.01 | 0.01 | 41 | 1009.2 |
| 20260508235616 | 67 | 233 | 0.0 | 0.9 | 0.00 | 0.01 | 0.01 | 41 | 1009.1 |
| 20260508234846 | 67 | 131 | 0.0 | 2.6 | 0.00 | 0.01 | 0.01 | 40 | 1009.0 |
| 20260508234340 | 68 | 237 | 0.0 | 2.6 | 0.00 | 0.01 | 0.01 | 40 | 1008.9 |
| 20260508233833 | 68 | 164 | 0.0 | 0.9 | 0.00 | 0.01 | 0.01 | 39 | 1008.9 |
| 20260508233328 | 68 | 164 | 0.0 | 0.9 | 0.00 | 0.01 | 0.01 | 38 | 1008.9 |
| 20260508232822 | 69 | 222 | 0.0 | 0.9 | 0.00 | 0.01 | 0.01 | 38 | 1008.8 |
| 20260508232315 | 69 | 75 | 0.0 | 1.7 | 0.00 | 0.01 | 0.01 | 38 | 1008.8 |
| 20260508231810 | 69 | 307 | 0.0 | 1.7 | 0.00 | 0.01 | 0.01 | 38 | 1008.7 |
| 20260508231304 | 69 | 238 | 0.0 | 2.6 | 0.00 | 0.01 | 0.01 | 37 | 1008.7 |
| 20260508230757 | 70 | 19 | 0.0 | 2.6 | 0.00 | 0.01 | 0.01 | 37 | 1008.7 |
| 20260508230252 | 70 | 43 | 0.0 | 1.7 | 0.00 | 0.01 | 0.01 | 37 | 1008.8 |
| 20260508225746 | 70 | 89 | 0.0 | 1.7 | 0.00 | 0.01 | 0.01 | 34 | 1008.7 |
| 20260508225240 | 71 | 162 | 0.0 | 1.7 | 0.00 | 0.01 | 0.01 | 35 | 1008.7 |
| 20260508224734 | 71 | 200 | 0.0 | 0.9 | 0.00 | 0.01 | 0.01 | 37 | 1008.7 |
| 20260508224229 | 71 | 146 | 0.0 | 0.9 | 0.00 | 0.01 | 0.01 | 36 | 1008.7 |
| 20260508223722 | 72 | 120 | 0.0 | 0.9 | 0.00 | 0.01 | 0.01 | 36 | 1008.7 |
| 20260508223215 | 72 | 156 | 0.9 | 3.5 | 0.00 | 0.01 | 0.01 | 35 | 1008.7 |
| 20260508222709 | 72 | 304 | 0.9 | 4.3 | 0.00 | 0.01 | 0.01 | 33 | 1008.8 |
| 20260508222204 | 72 | 144 | 0.9 | 5.2 | 0.00 | 0.01 | 0.01 | 34 | 1008.9 |
| 20260508221658 | 73 | 30 | 0.9 | 5.2 | 0.00 | 0.01 | 0.01 | 33 | 1008.9 |
| 20260508221152 | 73 | 236 | 0.9 | 4.3 | 0.00 | 0.01 | 0.01 | 32 | 1009.0 |
| 20260508220646 | 74 | 233 | 0.9 | 3.5 | 0.00 | 0.01 | 0.01 | 33 | 1009.0 |
| 20260508220143 | 75 | 49 | 0.0 | 1.7 | 0.00 | 0.01 | 0.01 | 32 | 1009.0 |
| 20260508215643 | 75 | 103 | 0.0 | 1.7 | 0.00 | 0.01 | 0.01 | 32 | 1009.0 |
| 20260508215625 | 76 | 164 | 0.0 | 1.7 | 0.00 | 0.01 | 0.01 | 32 | 1009.0 |
| 20260508214645 | 77 | 41 | 0.0 | 1.7 | 0.00 | 0.01 | 0.01 | 30 | 1009.0 |
| 20260508214349 | 76 | 205 | 0.9 | 3.5 | 0.00 | 0.01 | 0.01 | 30 | 1009.1 |
| 20260508214238 | 76 | 94 | 0.0 | 1.7 | 0.00 | 0.01 | 0.01 | 30 | 1009.0 |
| 20260508213140 | 76 | 44 | 0.9 | 3.5 | 0.00 | 0.01 | 0.01 | 31 | 1009.1 |
| 20260508212639 | 77 | 210 | 0.9 | 3.5 | 0.00 | 0.01 | 0.01 | 29 | 1009.1 |
| 20260508212138 | 77 | 215 | 0.0 | 1.7 | 0.00 | 0.01 | 0.01 | 30 | 1009.0 |
| 20260508211636 | 76 | 215 | 0.0 | 3.5 | 0.00 | 0.01 | 0.01 | 31 | 1009.0 |
| 20260508211135 | 76 | 219 | 0.9 | 3.5 | 0.00 | 0.01 | 0.01 | 29 | 1009.0 |
| 20260508210900 | 75 | 210 | 0.9 | 5.2 | 0.00 | 0.01 | 0.01 | 30 | 1009.0 |
| 20260508210736 | 76 | 297 | 0.9 | 5.2 | 0.00 | 0.01 | 0.01 | 31 | 1009.1 |
| 20260508205636 | 75 | 176 | 0.9 | 5.2 | 0.00 | 0.01 | 0.01 | 32 | 1009.1 |
| 20260508205134 | 75 | 224 | 0.9 | 5.2 | 0.00 | 0.02 | 0.01 | 30 | 1009.2 |
| 20260508204857 | 75 | 193 | 0.9 | 5.2 | 0.00 | 0.02 | 0.01 | 31 | 1009.3 |
| 20260508204404 | 75 | 193 | 0.9 | 3.5 | 0.00 | 0.04 | 0.01 | 30 | 1009.2 |
| 20260508203635 | 75 | 343 | 0.9 | 4.3 | 0.00 | 0.05 | 0.01 | 30 | 1009.2 |
| 20260508203135 | 75 | 1 | 0.9 | 4.3 | 0.00 | 0.06 | 0.01 | 30 | 1009.3 |
| 20260508202636 | 76 | 214 | 0.9 | 3.5 | 0.00 | 0.08 | 0.01 | 31 | 1009.3 |
| 20260508202134 | 76 | 144 | 0.9 | 4.3 | 0.00 | 0.09 | 0.01 | 31 | 1009.3 |
| 20260508201634 | 77 | 69 | 0.0 | 4.3 | 0.00 | 0.09 | 0.01 | 29 | 1009.4 |
| 20260508201136 | 76 | 158 | 0.0 | 2.6 | 0.00 | 0.11 | 0.01 | 32 | 1009.3 |
| 20260508200636 | 76 | 186 | 0.0 | 2.6 | 0.00 | 0.12 | 0.01 | 34 | 1009.4 |
| 20260508200135 | 75 | 211 | 0.9 | 4.3 | 0.00 | 0.13 | 0.01 | 33 | 1009.5 |
| 20260508195636 | 74 | 345 | 0.9 | 4.3 | 0.00 | 0.13 | 0.01 | 33 | 1009.6 |
| 20260508195353 | 74 | 195 | 0.9 | 5.2 | 0.00 | 0.13 | 0.01 | 36 | 1009.5 |
| 20260508194632 | 74 | 276 | 0.9 | 6.1 | 0.00 | 0.13 | 0.01 | 31 | 1009.7 |
| 20260508194132 | 74 | 225 | 0.9 | 6.1 | 0.00 | 0.13 | 0.01 | 32 | 1009.8 |
| 20260508193631 | 75 | 203 | 0.9 | 2.6 | 0.00 | 0.13 | 0.01 | 31 | 1009.8 |
| 20260508193358 | 75 | 191 | 0.9 | 3.5 | 0.00 | 0.13 | 0.01 | 34 | 1009.9 |
| 20260508192631 | 74 | 162 | 0.9 | 3.5 | 0.00 | 0.13 | 0.01 | 32 | 1009.9 |
| 20260508192131 | 74 | 229 | 0.9 | 5.2 | 0.00 | 0.13 | 0.01 | 31 | 1010.0 |
| 20260508191631 | 74 | 34 | 0.9 | 5.2 | 0.00 | 0.13 | 0.01 | 33 | 1010.3 |
| 20260508191353 | 74 | 130 | 0.9 | 3.5 | 0.00 | 0.13 | 0.01 | 34 | 1010.3 |
| 20260508190632 | 75 | 56 | 0.9 | 3.5 | 0.00 | 0.13 | 0.01 | 32 | 1010.5 |
| 20260508190132 | 74 | 176 | 0.9 | 3.5 | 0.00 | 0.13 | 0.01 | 35 | 1010.4 |
| 20260508185630 | 74 | 158 | 0.9 | 3.5 | 0.00 | 0.13 | 0.01 | 34 | 1010.4 |
| 20260508185131 | 74 | 117 | 0.9 | 3.5 | 0.00 | 0.13 | 0.01 | 33 | 1010.6 |
| 20260508184632 | 74 | 32 | 0.9 | 2.6 | 0.00 | 0.13 | 0.01 | 33 | 1010.6 |
| 20260508184128 | 74 | 154 | 0.9 | 4.3 | 0.00 | 0.13 | 0.01 | 34 | 1010.6 |
| 20260508183627 | 73 | 165 | 0.9 | 4.3 | 0.00 | 0.13 | 0.01 | 34 | 1010.7 |
| 20260508183127 | 74 | 245 | 0.9 | 4.3 | 0.00 | 0.13 | 0.01 | 35 | 1010.8 |
| 20260508182625 | 74 | 141 | 0.9 | 4.3 | 0.00 | 0.13 | 0.01 | 34 | 1010.8 |
| 20260508182125 | 74 | 125 | 0.0 | 4.3 | 0.00 | 0.13 | 0.01 | 36 | 1010.9 |
| 20260508181626 | 73 | 217 | 0.9 | 3.5 | 0.00 | 0.13 | 0.01 | 36 | 1010.9 |
| 20260508181125 | 73 | 235 | 0.9 | 3.5 | 0.00 | 0.13 | 0.01 | 34 | 1010.9 |
| 20260508180626 | 73 | 221 | 0.9 | 3.5 | 0.00 | 0.13 | 0.01 | 36 | 1011.1 |
| 20260508180120 | 73 | 226 | 0.9 | 3.5 | 0.00 | 0.13 | 0.01 | 36 | 1011.1 |
| 20260508175620 | 72 | 209 | 0.9 | 6.1 | 0.00 | 0.13 | 0.01 | 37 | 1011.1 |
| 20260508175123 | 72 | 289 | 0.9 | 6.1 | 0.00 | 0.13 | 0.01 | 33 | 1011.2 |
| 20260508174620 | 72 | 82 | 0.9 | 3.5 | 0.00 | 0.13 | 0.01 | 35 | 1011.2 |
| 20260508174121 | 72 | 129 | 0.9 | 3.5 | 0.00 | 0.13 | 0.01 | 33 | 1011.2 |
| 20260508173620 | 72 | 48 | 0.9 | 3.5 | 0.00 | 0.13 | 0.01 | 37 | 1011.3 |
| 20260508173119 | 72 | 232 | 0.0 | 1.7 | 0.00 | 0.13 | 0.01 | 38 | 1011.3 |
| 20260508173108 | 72 | 147 | 0.0 | 2.6 | 0.00 | 0.13 | 0.01 | 37 | 1011.4 |
| 20260508172116 | 71 | 206 | 0.9 | 4.3 | 0.00 | 0.13 | 0.01 | 38 | 1011.6 |
| 20260508171616 | 70 | 65 | 0.9 | 4.3 | 0.00 | 0.13 | 0.01 | 37 | 1011.6 |
| 20260508171118 | 71 | 229 | 0.9 | 3.5 | 0.00 | 0.13 | 0.01 | 36 | 1011.8 |
| 20260508170618 | 71 | 163 | 0.0 | 3.5 | 0.00 | 0.13 | 0.01 | 37 | 1011.8 |
| 20260508170116 | 70 | 49 | 0.9 | 3.5 | 0.00 | 0.13 | 0.01 | 38 | 1011.8 |
| 20260508165616 | 70 | 118 | 0.9 | 3.5 | 0.00 | 0.13 | 0.01 | 37 | 1011.9 |
| 20260508165114 | 69 | 152 | 0.9 | 3.5 | 0.00 | 0.13 | 0.01 | 42 | 1011.9 |
| 20260508164614 | 69 | 349 | 0.9 | 3.5 | 0.00 | 0.13 | 0.01 | 38 | 1012.0 |
| 20260508164115 | 68 | 34 | 0.9 | 3.5 | 0.00 | 0.13 | 0.01 | 38 | 1012.1 |
| 20260508163610 | 68 | 197 | 0.9 | 3.5 | 0.00 | 0.13 | 0.01 | 37 | 1012.3 |
| 20260508163323 | 67 | 23 | 0.9 | 3.5 | 0.00 | 0.13 | 0.01 | 39 | 1012.3 |
| 20260508162823 | 67 | 160 | 0.9 | 4.3 | 0.00 | 0.13 | 0.01 | 37 | 1012.4 |
| 20260508162051 | 67 | 212 | 0.0 | 4.3 | 0.00 | 0.13 | 0.01 | 42 | 1012.5 |
| 20260508161814 | 66 | 155 | 0.0 | 0.9 | 0.00 | 0.13 | 0.01 | 43 | 1012.5 |
| 20260508161039 | 65 | 150 | 0.0 | 0.9 | 0.00 | 0.13 | 0.01 | 46 | 1012.5 |
| 20260508160533 | 65 | 150 | 0.0 | 1.7 | 0.00 | 0.13 | 0.01 | 45 | 1012.6 |
| 20260508160027 | 64 | 203 | 0.0 | 1.7 | 0.00 | 0.14 | 0.01 | 45 | 1012.7 |
| 20260508155521 | 63 | 112 | 0.0 | 1.7 | 0.00 | 0.14 | 0.01 | 46 | 1012.7 |
| 20260508155015 | 63 | 27 | 0.0 | 1.7 | 0.00 | 0.14 | 0.01 | 46 | 1012.9 |
| 20260508154509 | 62 | 214 | 0.0 | 1.7 | 0.00 | 0.14 | 0.01 | 46 | 1012.9 |
| 20260508154003 | 62 | 49 | 0.0 | 1.7 | 0.00 | 0.14 | 0.01 | 48 | 1013.0 |
| 20260508153457 | 61 | 357 | 0.0 | 0.9 | 0.00 | 0.15 | 0.01 | 47 | 1013.0 |
| 20260508153213 | 60 | 217 | 0.0 | 0.9 | 0.00 | 0.15 | 0.01 | 57 | 1013.0 |
| 20260508152446 | 60 | 217 | 0.0 | 0.9 | 0.00 | 0.15 | 0.01 | 56 | 1013.0 |
| 20260508151938 | 60 | 229 | 0.0 | 1.7 | 0.00 | 0.16 | 0.01 | 60 | 1013.1 |
| 20260508151433 | 59 | 229 | 0.0 | 1.7 | 0.00 | 0.16 | 0.01 | 53 | 1013.2 |
| 20260508150927 | 59 | 225 | 0.0 | 1.7 | 0.00 | 0.16 | 0.01 | 50 | 1013.2 |
| 20260508150421 | 59 | 30 | 0.0 | 1.7 | 0.00 | 0.16 | 0.01 | 52 | 1013.2 |
| 20260508145915 | 58 | 153 | 0.0 | 2.6 | 0.00 | 0.16 | 0.01 | 54 | 1013.3 |
| 20260508145410 | 58 | 198 | 0.0 | 2.6 | 0.00 | 0.16 | 0.01 | 54 | 1013.2 |
| 20260508144903 | 57 | 212 | 0.0 | 1.7 | 0.00 | 0.16 | 0.01 | 63 | 1013.2 |
| 20260508144357 | 56 | 46 | 0.0 | 0.9 | 0.00 | 0.16 | 0.01 | 69 | 1013.2 |
| 20260508143851 | 56 | 46 | 0.0 | 0.9 | 0.00 | 0.16 | 0.01 | 66 | 1013.2 |
| 20260508143345 | 56 | 63 | 0.0 | 0.9 | 0.00 | 0.16 | 0.01 | 70 | 1013.2 |
| 20260508142838 | 55 | 63 | 0.0 | 0.9 | 0.00 | 0.16 | 0.01 | 74 | 1013.1 |
| 20260508142333 | 54 | 140 | 0.0 | 0.9 | 0.00 | 0.16 | 0.01 | 72 | 1013.1 |
| 20260508141828 | 54 | 208 | 0.0 | 0.9 | 0.00 | 0.16 | 0.01 | 75 | 1013.1 |
| 20260508141322 | 53 | 210 | 0.0 | 0.9 | 0.00 | 0.16 | 0.01 | 80 | 1013.2 |
| 20260508141035 | 53 | 210 | 0.0 | 0.9 | 0.00 | 0.16 | 0.01 | 82 | 1013.2 |
| 20260508140309 | 52 | 210 | 0.0 | 0.9 | 0.00 | 0.16 | 0.01 | 87 | 1013.2 |
| 20260508135803 | 52 | 210 | 0.0 | 0.9 | 0.00 | 0.16 | 0.01 | 89 | 1013.2 |
| 20260508135256 | 52 | 198 | 0.0 | 1.7 | 0.00 | 0.16 | 0.01 | 92 | 1013.3 |
| 20260508135015 | 51 | 198 | 0.0 | 1.7 | 0.00 | 0.16 | 0.01 | 92 | 1013.3 |
| 20260508134439 | 49 | 180 | 0.0 | 0.0 | 0.00 | 0.16 | 0.01 | 97 | 1013.4 |
| 20260508134329 | 50 | 175 | 0.0 | 0.9 | 0.00 | 0.16 | 0.01 | 95 | 1013.4 |
| 20260508133233 | 49 | 180 | 0.0 | 0.0 | 0.00 | 0.16 | 0.01 | 97 | 1013.4 |
| 20260508132727 | 49 | 180 | 0.0 | 0.0 | 0.00 | 0.16 | 0.01 | 97 | 1013.4 |
| 20260508132221 | 49 | 180 | 0.0 | 0.0 | 0.00 | 0.16 | 0.01 | 97 | 1013.4 |
| 20260508131715 | 49 | 180 | 0.0 | 0.0 | 0.00 | 0.16 | 0.01 | 97 | 1013.3 |
| 20260508131209 | 50 | 180 | 0.0 | 0.0 | 0.00 | 0.16 | 0.01 | 97 | 1013.3 |
| 20260508130703 | 50 | 180 | 0.0 | 0.0 | 0.00 | 0.16 | 0.01 | 97 | 1013.4 |
| 20260508130424 | 49 | 180 | 0.0 | 0.0 | 0.00 | 0.16 | 0.01 | 97 | 1013.3 |
| 20260508125651 | 49 | 180 | 0.0 | 0.0 | 0.00 | 0.16 | 0.01 | 97 | 1013.3 |
| 20260508125145 | 49 | 180 | 0.0 | 0.0 | 0.00 | 0.16 | 0.01 | 97 | 1013.4 |
| 20260508125131 | 49 | 180 | 0.0 | 0.0 | 0.00 | 0.16 | 0.01 | 97 | 1013.3 |
| 20260508124358 | 49 | 180 | 0.0 | 0.0 | 0.00 | 0.16 | 0.01 | 97 | 1013.3 |
| 20260508123627 | 48 | 180 | 0.0 | 0.0 | 0.00 | 0.16 | 0.01 | 97 | 1013.2 |
| 20260508123121 | 48 | 180 | 0.0 | 0.0 | 0.00 | 0.16 | 0.01 | 97 | 1013.1 |
| 20260508122615 | 47 | 180 | 0.0 | 0.0 | 0.01 | 0.16 | 0.01 | 97 | 1013.1 |
| 20260508122109 | 47 | 180 | 0.0 | 0.0 | 0.01 | 0.16 | 0.01 | 97 | 1013.1 |
| 20260508122047 | 46 | 180 | 0.0 | 0.0 | 0.01 | 0.16 | 0.01 | 97 | 1013.0 |
| 20260508121319 | 46 | 180 | 0.0 | 0.0 | 0.01 | 0.16 | 0.01 | 97 | 1012.9 |
| 20260508120818 | 45 | 180 | 0.0 | 0.0 | 0.01 | 0.16 | 0.01 | 97 | 1012.7 |
| 20260508120045 | 44 | 180 | 0.0 | 0.0 | 0.01 | 0.16 | 0.01 | 97 | 1012.6 |
| 20260508115539 | 44 | 180 | 0.0 | 0.0 | 0.01 | 0.16 | 0.01 | 97 | 1012.5 |
| 20260508115033 | 44 | 180 | 0.0 | 0.0 | 0.01 | 0.16 | 0.01 | 97 | 1012.5 |
| 20260508114527 | 43 | 180 | 0.0 | 0.0 | 0.01 | 0.16 | 0.01 | 97 | 1012.3 |
| 20260508114249 | 43 | 180 | 0.0 | 0.0 | 0.01 | 0.16 | 0.01 | 96 | 1012.3 |
| 20260508113514 | 43 | 180 | 0.0 | 0.0 | 0.01 | 0.16 | 0.01 | 96 | 1012.3 |
| 20260508113009 | 42 | 180 | 0.0 | 0.0 | 0.00 | 0.15 | 0.01 | 96 | 1012.2 |
| 20260508112504 | 42 | 180 | 0.0 | 0.0 | 0.00 | 0.15 | 0.00 | 96 | 1012.2 |
| 20260508111957 | 42 | 180 | 0.0 | 0.0 | 0.00 | 0.15 | 0.00 | 96 | 1012.1 |
| 20260508111451 | 42 | 180 | 0.0 | 0.0 | 0.00 | 0.15 | 0.00 | 96 | 1012.0 |
| 20260508111204 | 42 | 180 | 0.0 | 0.0 | 0.00 | 0.15 | 0.00 | 96 | 1011.9 |
| 20260508110446 | 42 | 180 | 0.0 | 0.0 | 0.00 | 0.15 | 0.00 | 96 | 1011.8 |
| 20260508105946 | 42 | 180 | 0.0 | 0.0 | 0.00 | 0.15 | 0.00 | 96 | 1011.7 |
| 20260508105445 | 42 | 180 | 0.0 | 0.0 | 0.00 | 0.15 | 0.00 | 96 | 1011.6 |
| 20260508104945 | 42 | 180 | 0.0 | 0.0 | 0.00 | 0.15 | 0.00 | 96 | 1011.5 |
| 20260508104705 | 42 | 180 | 0.0 | 0.0 | 0.00 | 0.15 | 0.00 | 96 | 1011.4 |
| 20260508103943 | 42 | 180 | 0.0 | 0.0 | 0.00 | 0.15 | 0.00 | 96 | 1011.4 |
| 20260508103442 | 42 | 180 | 0.0 | 0.0 | 0.00 | 0.15 | 0.00 | 96 | 1011.3 |
| 20260508102941 | 42 | 180 | 0.0 | 0.0 | 0.00 | 0.15 | 0.00 | 96 | 1011.3 |
| 20260508102443 | 42 | 180 | 0.0 | 0.0 | 0.00 | 0.15 | 0.00 | 96 | 1011.3 |
| 20260508101942 | 42 | 180 | 0.0 | 0.0 | 0.00 | 0.15 | 0.00 | 96 | 1011.3 |
| 20260508101443 | 42 | 180 | 0.0 | 0.0 | 0.00 | 0.15 | 0.00 | 96 | 1011.2 |
| 20260508100939 | 42 | 180 | 0.0 | 0.0 | 0.00 | 0.15 | 0.00 | 96 | 1011.1 |
| 20260508100438 | 43 | 180 | 0.0 | 0.0 | 0.00 | 0.15 | 0.00 | 96 | 1011.0 |
| 20260508095938 | 43 | 180 | 0.0 | 0.0 | 0.00 | 0.15 | 0.00 | 96 | 1011.0 |
| 20260508095439 | 43 | 180 | 0.0 | 0.0 | 0.00 | 0.15 | 0.00 | 96 | 1010.9 |
| 20260508094938 | 43 | 180 | 0.0 | 0.0 | 0.00 | 0.15 | 0.00 | 96 | 1010.9 |
| 20260508094437 | 43 | 180 | 0.0 | 0.0 | 0.00 | 0.15 | 0.00 | 96 | 1010.8 |
| 20260508093939 | 43 | 180 | 0.0 | 0.0 | 0.00 | 0.15 | 0.00 | 96 | 1010.7 |
| 20260508093439 | 44 | 180 | 0.0 | 0.0 | 0.00 | 0.15 | 0.00 | 96 | 1010.8 |
| 20260508092939 | 44 | 180 | 0.0 | 0.0 | 0.00 | 0.15 | 0.00 | 96 | 1010.6 |
| 20260508092436 | 44 | 180 | 0.0 | 0.0 | 0.00 | 0.15 | 0.00 | 96 | 1010.5 |
| 20260508091935 | 44 | 180 | 0.0 | 0.0 | 0.00 | 0.15 | 0.00 | 96 | 1010.5 |
| 20260508091435 | 44 | 180 | 0.0 | 0.0 | 0.00 | 0.15 | 0.00 | 96 | 1010.4 |
| 20260508090934 | 44 | 180 | 0.0 | 0.0 | 0.00 | 0.15 | 0.00 | 96 | 1010.4 |
| 20260508090433 | 44 | 180 | 0.0 | 0.0 | 0.00 | 0.15 | 0.00 | 96 | 1010.3 |
| 20260508090153 | 44 | 180 | 0.0 | 0.0 | 0.00 | 0.15 | 0.00 | 96 | 1010.3 |
| 20260508085924 | 44 | 180 | 0.0 | 0.0 | 0.00 | 0.15 | 0.00 | 96 | 1010.3 |
| 20260508084935 | 44 | 180 | 0.0 | 0.0 | 0.00 | 0.15 | 0.00 | 96 | 1010.3 |
| 20260508084435 | 44 | 180 | 0.0 | 0.0 | 0.00 | 0.15 | 0.00 | 96 | 1010.2 |
| 20260508083929 | 44 | 180 | 0.0 | 0.0 | 0.00 | 0.15 | 0.00 | 96 | 1010.2 |
| 20260508083422 | 44 | 180 | 0.0 | 0.0 | 0.00 | 0.15 | 0.00 | 96 | 1010.1 |
| 20260508082916 | 44 | 180 | 0.0 | 0.0 | 0.00 | 0.15 | 0.00 | 96 | 1010.0 |
| 20260508082411 | 44 | 180 | 0.0 | 0.0 | 0.00 | 0.15 | 0.00 | 96 | 1009.9 |
| 20260508082321 | 45 | 180 | 0.0 | 0.0 | 0.00 | 0.15 | 0.00 | 96 | 1009.9 |
| 20260508081949 | 45 | 180 | 0.0 | 0.0 | 0.00 | 0.15 | 0.00 | 96 | 1009.9 |
| 20260508080852 | 45 | 180 | 0.0 | 0.0 | 0.00 | 0.15 | 0.00 | 96 | 1009.8 |
| 20260508080346 | 45 | 180 | 0.0 | 0.0 | 0.00 | 0.15 | 0.00 | 96 | 1009.8 |
| 20260508075335 | 45 | 180 | 0.0 | 0.0 | 0.00 | 0.15 | 0.00 | 96 | 1009.7 |
| 20260508074828 | 45 | 180 | 0.0 | 0.0 | 0.00 | 0.15 | 0.00 | 96 | 1009.7 |
| 20260508074322 | 45 | 180 | 0.0 | 0.0 | 0.00 | 0.15 | 0.00 | 96 | 1009.6 |
| 20260508073816 | 45 | 180 | 0.0 | 0.0 | 0.00 | 0.15 | 0.00 | 96 | 1009.6 |
| 20260508073310 | 45 | 180 | 0.0 | 0.0 | 0.00 | 0.15 | 0.00 | 96 | 1009.6 |
| 20260508072804 | 45 | 180 | 0.0 | 0.0 | 0.00 | 0.15 | 0.00 | 96 | 1009.6 |
| 20260508072508 | 45 | 180 | 0.0 | 0.0 | 0.00 | 0.15 | 0.00 | 96 | 1009.4 |
| 20260508072350 | 45 | 180 | 0.0 | 0.0 | 0.00 | 0.15 | 0.00 | 96 | 1009.5 |
| 20260508071246 | 45 | 180 | 0.0 | 0.0 | 0.00 | 0.15 | 0.00 | 96 | 1009.4 |
| 20260508070740 | 45 | 180 | 0.0 | 0.0 | 0.00 | 0.15 | 0.00 | 96 | 1009.3 |
| 20260508070233 | 45 | 180 | 0.0 | 0.0 | 0.00 | 0.15 | 0.00 | 96 | 1009.3 |
| 20260508065729 | 45 | 180 | 0.0 | 0.0 | 0.00 | 0.15 | 0.00 | 96 | 1009.3 |
| 20260508065221 | 45 | 180 | 0.0 | 0.0 | 0.00 | 0.15 | 0.00 | 96 | 1009.3 |
| 20260508064716 | 45 | 180 | 0.0 | 0.0 | 0.00 | 0.15 | 0.00 | 96 | 1009.3 |
| 20260508064210 | 45 | 180 | 0.0 | 0.0 | 0.00 | 0.15 | 0.00 | 96 | 1009.3 |
| 20260508063704 | 45 | 180 | 0.0 | 0.0 | 0.00 | 0.15 | 0.00 | 96 | 1009.3 |
| 20260508063158 | 45 | 180 | 0.0 | 0.0 | 0.00 | 0.15 | 0.00 | 96 | 1009.3 |
| 20260508062652 | 45 | 180 | 0.0 | 0.0 | 0.00 | 0.15 | 0.00 | 95 | 1009.2 |
| 20260508062146 | 45 | 180 | 0.0 | 0.0 | 0.00 | 0.15 | 0.00 | 95 | 1009.2 |
| 20260508061639 | 45 | 180 | 0.0 | 0.0 | 0.00 | 0.15 | 0.00 | 95 | 1009.1 |
| 20260508061135 | 45 | 180 | 0.0 | 0.0 | 0.00 | 0.15 | 0.00 | 95 | 1009.1 |
| 20260508060851 | 45 | 180 | 0.0 | 0.0 | 0.00 | 0.15 | 0.00 | 95 | 1009.0 |
| 20260508060122 | 45 | 180 | 0.0 | 0.0 | 0.00 | 0.15 | 0.00 | 95 | 1009.0 |
| 20260508055616 | 45 | 180 | 0.0 | 0.0 | 0.00 | 0.15 | 0.00 | 95 | 1008.9 |
| 20260508055111 | 45 | 180 | 0.0 | 0.0 | 0.00 | 0.15 | 0.00 | 95 | 1008.9 |
| 20260508054604 | 45 | 180 | 0.0 | 0.0 | 0.00 | 0.15 | 0.00 | 95 | 1008.8 |
| 20260508054058 | 45 | 180 | 0.0 | 0.0 | 0.00 | 0.15 | 0.00 | 95 | 1008.7 |
| 20260508053553 | 45 | 180 | 0.0 | 0.0 | 0.00 | 0.15 | 0.00 | 95 | 1008.8 |
| 20260508053306 | 46 | 180 | 0.0 | 0.0 | 0.00 | 0.15 | 0.00 | 95 | 1008.8 |
| 20260508052540 | 46 | 180 | 0.0 | 0.0 | 0.00 | 0.15 | 0.00 | 95 | 1008.8 |
| 20260508052259 | 46 | 180 | 0.0 | 0.0 | 0.00 | 0.15 | 0.00 | 95 | 1008.9 |
| 20260508051537 | 46 | 180 | 0.0 | 0.0 | 0.00 | 0.15 | 0.00 | 95 | 1008.8 |
| 20260508051037 | 46 | 180 | 0.0 | 0.0 | 0.00 | 0.15 | 0.00 | 95 | 1008.8 |
| 20260508050533 | 46 | 180 | 0.0 | 0.0 | 0.00 | 0.15 | 0.00 | 95 | 1008.8 |
| 20260508050031 | 46 | 180 | 0.0 | 0.0 | 0.00 | 0.15 | 0.00 | 95 | 1008.8 |
| 20260508045753 | 46 | 180 | 0.0 | 0.0 | 0.00 | 0.15 | 0.00 | 95 | 1008.8 |